Weather History for FBSK - September, 2013

Change the Weather History Date:

Thursday, September 19, 2013

  Actual Average Record
Temperature  
Mean Temperature 76 °F -  
Max Temperature 89 °F 84 °F 93 °F (2003)
Min Temperature 64 °F 57 °F 35 °F (2003)
Cooling Degree Days 12    
Growing Degree Days 26 (Base 50)    
Moisture  
Dew Point 33 °F    
Average Humidity 21    
Maximum Humidity 37    
Minimum Humidity 12    
Precipitation  
Precipitation 0.00 in - - ()
Sea Level Pressure  
Sea Level Pressure 29.94 in    
Wind  
Wind Speed 6 mph ()    
Max Wind Speed 9 mph    
Max Gust Speed -    
Averages and records for this station are not official NWS values.
T = Trace of Precipitation, MM = Missing Value Source: Averaged Metar Reports

Daily Weather History Graph

Daily Weather History Graph

Search for Another Location

Airport or City:

Trip Planner

Search our weather history database for the weather conditions in past years. The results will help you decide how hot, cold, wet, or windy it might be!

Date:

Astronomy

Sep. 19, 2013 Rise Set
Actual Time 6:09 AM CAT 6:11 PM CAT
Civil Twilight 5:46 AM CAT 6:34 PM CAT
Nautical Twilight 5:20 AM CAT 7:00 PM CAT
Astronomical Twilight 4:53 AM CAT 7:27 PM CAT
Moon 6:19 PM CAT (9/19) 5:47 AM CAT (9/19)
Length of Visible Light 12h 47m
Length of Day
12h 02m
Full, 100% of the Moon is Illuminated
Sep 19
Full
Sep 19
Full
Sep 27
Last Quarter
Oct 5
New
Oct 12
First Quarter

Hourly Weather History & Observations

Time (CAT) Temp. Dew Point Humidity Pressure Visibility Wind Dir Wind Speed Gust Speed Precip Events Conditions
1:00 AM 75.2 °F 33.8 °F 22% 29.98 in - NE 6.9 mph - N/A   Clear
2:00 AM 68.0 °F 33.8 °F 28% 29.98 in - SE 8.1 mph - N/A   Clear
3:00 AM 66.2 °F 32.0 °F 28% 29.95 in - ESE 8.1 mph - N/A   Clear
4:00 AM 64.4 °F 33.8 °F 32% 29.95 in - ESE 5.8 mph - N/A   Clear
5:00 AM 64.4 °F 35.6 °F 34% 30.01 in - South 6.9 mph - N/A   Clear
6:00 AM 66.2 °F 35.6 °F 32% 30.04 in - South 8.1 mph - N/A   Clear
7:00 AM 64.4 °F 37.4 °F 37% 30.04 in - SE 3.5 mph - N/A   Clear
8:00 AM 68.0 °F 35.6 °F 30% 30.06 in - Variable 2.3 mph - N/A   Clear
9:00 AM 73.4 °F 37.4 °F 27% 30.06 in - NNE 4.6 mph - N/A   Clear
10:00 AM 82.4 °F 37.4 °F 20% 30.06 in - North 4.6 mph - N/A   Clear
11:00 AM 84.2 °F 35.6 °F 18% 30.04 in - Variable 4.6 mph - N/A   Clear
12:00 PM 87.8 °F 33.8 °F 15% 30.01 in - NNE 8.1 mph - N/A   Clear
1:00 PM 87.8 °F 33.8 °F 15% 29.95 in - NW 9.2 mph - N/A   Clear
2:00 PM 89.6 °F 32.0 °F 13% 29.92 in - NNW 5.8 mph - N/A   Clear
3:00 PM 89.6 °F 32.0 °F 13% 29.89 in - North 8.1 mph - N/A   Clear
4:00 PM 89.6 °F 30.2 °F 12% 29.86 in - NW 8.1 mph - N/A   Clear
5:00 PM 89.6 °F 30.2 °F 12% 29.83 in - North 8.1 mph - N/A   Clear
6:00 PM 86.0 °F 30.2 °F 13% 29.83 in - North 5.8 mph - N/A   Clear
7:00 PM 84.2 °F 30.2 °F 14% 29.83 in - NE 5.8 mph - N/A   Clear
8:00 PM 84.2 °F 30.2 °F 14% 29.83 in - NNE 4.6 mph - N/A   Clear
9:00 PM 80.6 °F 32.0 °F 17% 29.86 in - North 4.6 mph - N/A   Clear
10:00 PM 80.6 °F 32.0 °F 17% 29.86 in - North 2.3 mph - N/A   Clear
11:00 PM 78.8 °F 32.0 °F 18% 29.86 in - NE 3.5 mph - N/A   Clear